Wind_Speed
3 3 3 3 3 3 2 3 3 3 3 3 3 3 3 3 3 3 5 5 5 6 6 7 7 8 8 8 8 8 8 8 8 9 9 10 9 9 9 8 8 8 8
4 4 4 4 4 3 3 3 4 4 5 4 4 4 4 4 4 4 5 5 5 6 6 7 8 8 8 9 9 9 9 9 9 9 10 10 10 10 9 9 9 9 9
3 4 4 5 5 4 4 4 5 5 6 5 5 5 5 5 6 6 6 6 7 7 7 7 8 9 9 9 9 10 10 10 10 10 10 11 11 11 11 10 10 10 10
4 4 4 5 6 5 5 5 6 6 6 5 5 5 6 6 6 7 7 8 8 8 8 8 9 10 10 10 10 10 11 11 11 10 10 11 12 12 12 11 11 11 10
4 4 4 5 6 6 6 6 6 6 6 6 6 6 6 7 7 7 8 8 9 9 8 8 8 9 10 10 10 11 11 11 11 11 11 11 12 12 12 12 12 11 11
4 4 4 4 5 5 6 6 6 6 7 7 6 6 6 7 7 8 8 9 9 8 9 9 9 9 9 9 10 10 11 12 12 12 12 12 12 13 12 12 12 12 11
4 4 4 5 5 5 6 6 6 6 7 7 7 7 7 8 8 8 8 8 8 8 8 8 9 9 9 9 10 10 10 11 12 13 13 13 13 13 13 12 12 12 11
5 5 5 5 5 5 6 6 7 6 6 7 7 7 6 7 7 7 7 8 8 8 8 8 9 9 9 10 10 10 11 12 12 12 13 13 13 13 12 12 12 12 11
6 6 5 6 6 6 6 7 6 6 6 6 6 6 5 5 6 6 7 7 7 8 8 8 8 8 8 9 10 10 11 12 12 12 12 12 12 13 13 12 12 12 11
6 6 6 6 5 5 6 6 6 6 5 5 5 5 5 5 5 6 6 7 7 7 7 8 8 8 8 9 9 10 10 11 11 11 11 12 12 12 12 11 11 12 11
8 7 7 6 6 6 6 6 6 6 5 5 5 5 5 5 5 5 6 7 7 6 6 7 7 8 8 8 9 9 9 9 10 10 11 11 11 11 11 11 11 11 11
8 7 7 6 5 5 5 5 5 5 5 4 5 5 5 4 4 5 5 5 5 5 5 5 6 7 7 8 8 8 8 8 9 9 9 10 10 10 10 11 10 10 10
7 7 7 6 6 5 5 4 4 4 4 4 4 4 4 4 4 5 5 4 5 5 5 5 6 6 6 6 7 7 7 7 8 8 8 9 9 10 10 10 9 9 9
7 7 7 7 6 5 4 4 3 2 2 3 3 3 3 4 4 4 4 4 4 4 4 4 4 4 5 5 5 6 6 6 6 6 7 7 8 9 9 10 9 9 8
7 7 7 6 6 5 4 3 2 1 1 2 2 2 3 3 3 4 3 4 4 4 3 3 3 3 4 4 4 4 4 5 5 5 5 6 7 8 8 8 8 8 7
7 7 6 6 6 5 3 3 2 1 1 1 1 2 2 3 3 3 4 3 3 3 3 3 3 3 2 2 3 3 3 4 4 4 5 5 6 7 7 7 8 7 7
8 8 6 6 6 5 4 3 2 1 1 1 1 1 2 3 3 3 4 3 3 3 3 2 2 2 2 1 1 1 1 2 3 3 4 5 5 6 6 7 7 6 6
8 7 7 6 6 5 4 3 2 1 1 0 0 1 2 3 3 3 3 4 4 3 3 2 2 3 2 1 1 1 0 0 1 2 3 4 4 5 5 6 5 5 5
8 8 8 7 7 6 4 2 2 1 1 2 1 2 2 3 4 3 3 4 4 4 4 3 3 3 3 2 2 2 1 1 2 2 3 3 3 4 4 4 4 4 4
10 9 8 8 7 6 5 4 3 2 2 2 2 2 3 4 4 4 4 4 5 5 4 4 4 4 4 3 3 3 3 2 3 3 3 3 3 3 4 4 3 3 3
10 10 10 9 7 6 6 5 4 2 2 2 2 2 3 3 4 4 4 5 5 5 5 4 4 4 4 4 3 4 3 3 3 3 2 3 3 3 3 3 2 2 3
11 12 11 10 8 7 6 5 4 3 3 2 2 3 3 3 4 4 4 4 5 5 5 5 4 5 5 5 4 4 4 4 3 3 2 3 4 4 4 3 2 2 2
11 13 12 11 9 8 7 6 5 4 4 3 3 2 3 3 4 4 4 4 5 5 6 5 5 5 6 5 5 4 4 4 3 4 3 3 4 3 3 3 2 2 2
11 12 13 12 10 9 9 8 6 6 4 3 3 2 2 3 3 4 4 4 4 5 5 5 5 6 6 5 5 5 5 4 4 4 4 3 3 3 2 2 1 2 1
13 13 13 12 11 10 10 9 8 7 5 4 3 2 2 3 3 4 4 4 5 5 6 6 6 6 6 6 5 5 5 5 4 3 4 3 3 3 2 2 1 1 0
14 15 14 13 12 12 11 10 9 8 6 5 4 3 2 2 3 3 4 4 5 5 6 6 6 6 6 5 5 5 4 4 4 4 4 4 3 3 2 2 1 0 1
Wind_Direction
252 246 242 241 243 236 244 262 282 297 295 298 294 283 287 290 287 269 267 268 260 252 245 245 244 242 243 244 246 245 245 243 237 234 233 232 232 235 234 235 235 233 232
251 250 243 239 249 244 248 262 275 284 284 289 280 273 277 280 280 278 275 274 269 265 254 249 248 247 248 248 248 247 247 246 245 242 239 238 236 238 240 241 239 239 237
251 244 236 241 247 250 259 268 272 278 281 278 270 270 274 279 280 276 276 276 277 272 267 259 255 255 252 252 250 248 249 249 250 246 241 240 239 241 242 244 242 242 243
248 238 235 244 246 255 264 270 272 276 280 273 267 266 272 279 281 279 277 275 276 274 269 265 263 260 258 254 253 252 250 250 250 250 247 243 241 242 243 246 247 245 246
246 236 241 253 257 256 261 271 275 277 276 272 269 268 272 278 280 279 278 276 275 273 270 269 268 266 265 260 258 254 252 252 251 250 249 245 244 244 245 246 249 250 250
257 250 256 261 263 262 265 269 278 277 276 276 269 273 277 281 283 283 280 276 274 269 270 271 269 268 268 263 260 257 258 256 251 250 250 248 247 247 247 245 247 248 250
269 263 267 268 269 270 271 272 278 283 283 276 273 275 278 282 286 286 282 275 272 272 270 267 266 266 267 264 261 260 259 258 253 253 251 248 248 248 248 245 244 246 248
268 268 268 269 265 266 271 275 278 282 290 288 281 280 284 286 286 284 282 277 272 269 266 267 267 268 267 265 264 262 261 260 257 255 249 247 247 247 247 245 244 247 249
263 266 267 265 263 262 269 275 275 280 289 291 292 290 291 290 286 288 286 281 276 270 271 270 270 270 269 269 267 266 261 259 258 255 250 249 247 244 245 245 245 246 249
269 266 257 258 266 269 268 272 274 286 292 289 292 297 299 296 293 293 295 292 286 280 275 270 270 273 272 270 268 267 262 257 256 253 249 247 245 239 239 241 243 245 247
270 267 258 258 268 273 275 277 279 285 291 293 293 300 300 300 296 296 302 301 292 285 279 274 274 275 273 270 267 265 260 255 252 249 245 242 239 237 235 237 240 241 243
258 260 259 266 272 280 280 281 283 284 286 294 300 308 306 306 308 311 321 317 305 295 289 282 277 273 271 269 267 264 258 253 249 246 242 238 236 234 234 235 235 237 237
252 250 249 251 258 268 276 276 281 283 288 300 307 311 321 323 321 321 322 324 323 312 301 291 281 274 268 268 269 267 260 254 247 244 239 234 232 235 234 233 231 233 235
251 248 245 252 249 254 262 265 271 291 311 320 316 319 326 325 330 332 330 330 327 322 314 301 291 280 270 270 273 269 264 255 250 240 234 231 231 233 231 230 228 231 236
245 240 243 248 243 243 243 245 253 269 307 313 328 330 338 340 340 341 339 338 333 334 329 323 317 299 285 275 272 266 261 254 250 239 229 228 228 227 226 223 223 226 230
237 232 234 236 229 223 224 240 245 254 312 288 297 334 347 346 346 353 353 347 352 351 350 351 345 331 322 296 285 268 261 252 247 240 228 227 225 225 224 219 219 224 229
229 226 226 222 219 201 205 232 258 257 225 271 303 2 7 4 0 3 6 13 19 15 4 358 2 359 357 352 334 292 279 247 229 227 220 217 219 221 216 212 214 221 230
223 216 215 214 208 196 200 222 232 224 201 174 75 31 19 17 15 21 29 33 32 27 22 21 29 27 29 51 51 47 30 145 190 183 183 194 203 204 203 206 212 220 226
222 210 206 203 202 198 203 209 210 182 136 116 86 55 37 36 39 41 36 35 31 35 39 42 46 46 62 84 92 96 109 120 140 151 163 173 186 185 186 193 201 215 224
224 210 207 199 199 196 194 195 185 164 145 114 88 69 53 51 51 47 39 35 34 40 44 52 55 55 65 84 93 95 98 101 132 141 161 167 176 177 171 176 190 208 222
219 212 205 201 198 195 195 194 187 172 156 131 99 76 67 60 53 43 39 40 42 46 49 59 65 68 69 80 89 94 97 101 120 128 136 160 170 167 169 171 179 198 211
215 210 206 204 202 201 204 201 195 183 167 142 107 83 71 63 54 45 48 48 51 55 59 64 72 77 83 84 89 90 87 84 97 103 106 141 158 156 157 157 174 177 184
212 209 207 206 203 200 201 200 195 184 174 154 127 99 74 60 52 53 57 57 56 56 60 67 76 82 88 87 85 84 83 85 87 92 103 119 126 142 152 150 170 170 176
209 207 205 204 201 201 199 198 196 189 180 167 146 114 80 66 55 52 59 64 64 63 66 74 82 90 87 88 87 85 88 86 81 82 89 107 119 122 129 129 157 160 181
213 208 206 204 203 202 201 200 198 194 192 184 170 143 104 76 64 55 58 65 69 71 74 79 85 89 86 87 86 86 86 84 84 87 86 101 114 111 112 107 112 114 41
215 211 206 202 202 203 204 205 203 200 198 190 181 164 134 100 77 65 62 68 72 76 80 80 83 85 84 84 86 85 84 84 89 91 90 97 107 105 99 87 66 21 359
Height
5897 5896 5896 5896 5896 5896 5896 5896 5896 5896 5896 5895 5895 5895 5895 5894 5894 5894 5893 5893 5893 5892 5892 5892 5892 5892 5892 5892 5892 5892 5892 5892 5893 5893 5893 5894 5894 5894 5895 5895 5895 5895 5896
5896 5896 5895 5895 5895 5895 5895 5895 5895 5895 5895 5895 5895 5895 5894 5894 5893 5893 5893 5892 5892 5891 5891 5891 5891 5891 5891 5891 5891 5891 5891 5891 5891 5891 5892 5892 5893 5893 5893 5893 5894 5894 5894
5895 5895 5895 5895 5895 5895 5895 5895 5895 5895 5894 5894 5894 5894 5894 5893 5893 5892 5892 5891 5891 5890 5890 5889 5889 5889 5889 5889 5889 5889 5889 5889 5890 5890 5890 5890 5891 5891 5892 5892 5892 5893 5893
5894 5894 5894 5894 5894 5894 5894 5894 5894 5894 5894 5893 5893 5893 5893 5892 5892 5891 5890 5890 5889 5889 5888 5888 5888 5887 5887 5887 5887 5887 5887 5888 5888 5888 5888 5889 5889 5890 5890 5890 5891 5891 5891
5892 5893 5893 5893 5893 5893 5893 5893 5893 5893 5893 5892 5892 5892 5891 5891 5890 5890 5889 5888 5888 5887 5887 5886 5886 5886 5885 5885 5885 5885 5885 5886 5886 5886 5886 5887 5887 5888 5888 5889 5889 5890 5890
5892 5892 5892 5892 5892 5892 5893 5893 5892 5892 5892 5891 5891 5890 5890 5889 5889 5888 5887 5886 5886 5885 5885 5884 5884 5884 5883 5883 5883 5883 5883 5883 5884 5884 5885 5885 5885 5886 5886 5887 5887 5888 5889
5891 5891 5891 5891 5891 5891 5892 5891 5891 5891 5890 5890 5889 5889 5888 5888 5887 5886 5885 5884 5884 5883 5883 5882 5882 5882 5881 5881 5881 5881 5881 5881 5881 5882 5882 5883 5883 5884 5884 5885 5886 5886 5887
5890 5890 5890 5890 5890 5890 5890 5890 5890 5889 5889 5888 5888 5887 5887 5886 5885 5884 5883 5883 5882 5881 5881 5880 5880 5879 5879 5878 5878 5878 5878 5879 5879 5879 5880 5880 5881 5882 5882 5883 5884 5885 5885
5888 5888 5889 5889 5889 5889 5889 5889 5889 5888 5888 5887 5887 5886 5885 5884 5883 5882 5881 5881 5880 5879 5879 5878 5877 5877 5876 5876 5876 5876 5876 5876 5876 5877 5877 5878 5878 5879 5880 5881 5882 5883 5883
5887 5887 5887 5888 5888 5888 5888 5888 5888 5887 5887 5886 5885 5885 5884 5883 5882 5881 5880 5879 5878 5877 5876 5876 5875 5875 5874 5874 5874 5873 5873 5873 5874 5874 5875 5875 5876 5877 5878 5879 5880 5881 5881
5885 5886 5886 5886 5886 5886 5886 5886 5886 5886 5885 5885 5884 5883 5882 5881 5880 5879 5878 5877 5876 5875 5874 5874 5873 5873 5872 5872 5871 5871 5871 5871 5871 5872 5872 5873 5874 5875 5876 5877 5878 5879 5880
5884 5884 5884 5885 5885 5885 5885 5885 5885 5885 5884 5884 5883 5882 5881 5880 5879 5878 5877 5875 5874 5873 5872 5872 5871 5871 5870 5870 5869 5869 5869 5869 5869 5869 5870 5871 5872 5873 5874 5875 5876 5877 5878
5882 5883 5883 5883 5884 5884 5884 5884 5884 5883 5883 5882 5882 5881 5880 5879 5878 5877 5876 5874 5873 5872 5871 5870 5870 5869 5869 5868 5868 5867 5867 5867 5867 5868 5868 5869 5870 5871 5872 5873 5874 5875 5876
5881 5881 5882 5882 5882 5883 5883 5882 5882 5882 5881 5881 5881 5880 5879 5878 5877 5876 5874 5873 5872 5871 5870 5869 5868 5868 5867 5866 5866 5866 5866 5866 5866 5866 5867 5868 5869 5870 5871 5872 5873 5874 5875
5879 5879 5880 5880 5881 5881 5881 5881 5881 5881 5881 5880 5880 5879 5878 5877 5876 5875 5874 5872 5871 5870 5869 5868 5867 5866 5866 5865 5865 5865 5864 5864 5864 5865 5865 5866 5867 5868 5869 5870 5871 5872 5873
5877 5878 5878 5879 5879 5880 5880 5881 5881 5880 5880 5880 5879 5878 5877 5876 5875 5874 5873 5872 5871 5869 5868 5867 5866 5866 5865 5864 5864 5864 5863 5863 5863 5864 5864 5865 5866 5867 5868 5869 5870 5871 5872
5875 5876 5877 5878 5878 5879 5880 5880 5880 5879 5879 5879 5878 5877 5877 5876 5874 5873 5872 5871 5870 5869 5868 5867 5866 5865 5864 5864 5863 5863 5863 5863 5863 5863 5864 5864 5865 5866 5867 5868 5869 5870 5871
5873 5874 5875 5876 5877 5878 5879 5879 5879 5879 5878 5878 5877 5877 5876 5875 5874 5873 5872 5871 5870 5868 5867 5866 5866 5865 5864 5864 5863 5863 5863 5863 5863 5863 5863 5864 5865 5865 5866 5867 5868 5869 5870
5871 5872 5874 5875 5876 5877 5878 5878 5878 5878 5878 5877 5877 5876 5875 5875 5874 5873 5872 5871 5869 5868 5867 5866 5865 5865 5864 5864 5864 5864 5863 5863 5863 5863 5863 5864 5865 5865 5866 5867 5868 5868 5869
5869 5871 5872 5874 5875 5876 5877 5878 5878 5878 5877 5877 5877 5876 5875 5874 5874 5873 5872 5871 5869 5868 5867 5866 5866 5865 5864 5864 5864 5864 5864 5864 5864 5864 5864 5864 5865 5865 5866 5867 5868 5868 5868
5867 5870 5871 5873 5874 5875 5876 5877 5877 5877 5877 5877 5876 5876 5875 5874 5874 5873 5872 5871 5870 5869 5868 5867 5866 5865 5865 5865 5865 5865 5864 5864 5864 5864 5864 5864 5865 5865 5866 5867 5868 5868 5868
5865 5868 5869 5871 5872 5874 5875 5876 5876 5877 5877 5877 5876 5876 5875 5875 5874 5873 5872 5871 5870 5869 5868 5867 5867 5866 5865 5865 5865 5865 5865 5865 5865 5865 5865 5865 5865 5866 5866 5867 5867 5868 5868
5863 5866 5867 5869 5871 5872 5873 5875 5876 5876 5876 5876 5876 5876 5875 5875 5874 5873 5872 5871 5870 5870 5869 5868 5867 5867 5866 5866 5866 5866 5866 5866 5866 5866 5865 5865 5866 5866 5866 5867 5867 5867 5867
5861 5863 5865 5867 5869 5871 5872 5874 5875 5876 5876 5876 5876 5876 5875 5875 5874 5873 5872 5872 5871 5870 5869 5868 5868 5868 5867 5867 5867 5867 5867 5867 5867 5867 5867 5867 5867 5867 5867 5867 5867 5867 5867
5859 5861 5863 5866 5868 5869 5871 5873 5874 5875 5875 5876 5876 5876 5875 5875 5874 5874 5873 5872 5871 5870 5870 5869 5869 5868 5868 5868 5868 5868 5868 5868 5868 5868 5867 5867 5867 5867 5867 5867 5867 5867 5866
5857 5859 5861 5864 5866 5868 5870 5871 5873 5874 5874 5875 5875 5875 5875 5875 5875 5874 5874 5873 5872 5871 5871 5870 5870 5869 5869 5869 5869 5869 5869 5869 5868 5868 5868 5868 5868 5868 5868 5867 5867 5866 5866